2019-305T00:24:23.690,   1, 180,   1,   120,   4,          0,     46.364,  99218.184,    41.300,    -7.840,    23.981,     4.368, 2, 5.486E-04, -1.00,   2,  5.650E-03,  8.658E-05,  1.861E-13,  1.510E-14,  2.055E+02,  1.668E+01, 255
2019-305T00:26:23.691,   1, 180,   1,   120,   4,          0,     46.364,  99218.184,    41.288,    -7.837,    23.980,     3.158, 2, 5.486E-04, -1.00,   2,  5.306E-03,  8.439E-05,  1.391E-13,  1.483E-14,  1.637E+02,  1.744E+01, 255
2019-305T00:28:23.693,   1, 180,   1,   120,   4,          0,     46.364,  99218.184,    41.276,    -7.834,    23.980,     1.948, 2, 5.486E-04, -1.00,   2,  5.422E-03,  8.548E-05,  9.291E-14,  1.465E-14,  1.070E+02,  1.687E+01, 255
2019-305T00:30:23.694,   1, 180,   1,   120,   4,          0,     46.364,  99218.184,    41.264,    -7.831,    23.980,     0.738, 2, 5.486E-04, -1.00,   2,  5.462E-03,  8.417E-05,  2.129E-13,  1.511E-14,  2.433E+02,  1.727E+01, 255
2019-305T00:32:23.695,   1, 180,   1,   120,   4,          0,     46.364,  99218.184,    41.251,    -7.827,    23.980,   359.528, 2, 5.486E-04, -1.00,   2,  4.849E-03,  8.189E-05,  2.026E-13,  1.593E-14,  2.608E+02,  2.051E+01, 255
2019-305T00:44:23.704,   1, 180,   1,   120,   4,          0,     46.364,  99218.184,    41.178,    -7.808,    23.980,   352.267, 2, 5.486E-04, -1.00,   2,  3.928E-03,  7.607E-05,  1.304E-13,  1.579E-14,  2.072E+02,  2.508E+01, 255
2019-305T00:46:23.705,   1, 180,   1,   120,   4,          0,     46.364,  99218.184,    41.166,    -7.804,    23.980,   351.057, 2, 5.486E-04, -1.00,   2,  3.716E-03,  6.914E-05,  2.175E-13,  1.629E-14,  3.653E+02,  2.736E+01, 255
2019-305T00:48:23.706,   1, 180,   1,   120,   4,          0,     46.364,  99218.184,    41.154,    -7.801,    23.980,   349.847, 2, 5.486E-04, -1.00,   2,  3.940E-03,  7.272E-05,  1.643E-13,  1.543E-14,  2.603E+02,  2.445E+01, 255
2019-305T00:50:23.708,   1, 180,   1,   120,   4,          0,     46.364,  99218.184,    41.142,    -7.798,    23.979,   348.637, 2, 5.486E-04, -1.00,   2,  3.656E-03,  7.019E-05,  2.259E-13,  1.557E-14,  3.857E+02,  2.659E+01, 255
2019-305T00:54:23.711,   1, 180,   1,   120,   4,          0,     46.364,  99218.184,    41.117,    -7.791,    23.979,   346.217, 2, 5.486E-04, -1.00,   2,  3.616E-03,  6.594E-05,  2.221E-13,  1.547E-14,  3.835E+02,  2.670E+01, 255
2019-305T00:56:23.712,   1, 180,   1,   120,   4,          0,     46.364,  99218.184,    41.105,    -7.788,    23.979,   345.007, 2, 5.486E-04, -1.00,   2,  3.750E-03,  6.849E-05,  1.747E-13,  1.523E-14,  2.908E+02,  2.535E+01, 255
2019-305T00:58:23.713,   1, 180,   1,   120,   4,          0,     46.364,  99218.184,    41.093,    -7.785,    23.979,   343.797, 2, 5.486E-04, -1.00,   2,  3.767E-03,  6.722E-05,  1.251E-13,  1.516E-14,  2.073E+02,  2.512E+01, 255
2019-305T01:00:23.715,   1, 180,   1,   120,   4,          0,     46.364,  99218.184,    41.081,    -7.781,    23.979,   342.587, 2, 5.486E-04, -1.00,   2,  4.466E-03,  6.844E-05,  3.471E-13,  1.571E-14,  4.851E+02,  2.195E+01, 255
2019-305T01:02:23.716,   1, 180,   1,   120,   4,          0,     46.364,  99218.184,    41.069,    -7.778,    23.979,   341.377, 2, 5.486E-04, -1.00,   2,  5.852E-03,  7.019E-05,  5.915E-13,  1.605E-14,  6.309E+02,  1.711E+01, 255
2019-305T01:04:23.718,   1, 180,   1,   120,   4,          0,     46.364,  99218.184,    41.056,    -7.775,    23.979,   340.167, 2, 5.486E-04, -1.00,   2,  5.980E-03,  7.268E-05,  5.016E-13,  1.576E-14,  5.235E+02,  1.645E+01, 255
2019-305T01:06:23.719,   1, 180,   1,   120,   4,          0,     46.364,  99218.184,    41.044,    -7.771,    23.979,   338.957, 2, 5.486E-04, -1.00,   2,  4.875E-03,  6.955E-05,  2.025E-13,  1.521E-14,  2.593E+02,  1.947E+01, 255
2019-305T01:08:23.720,   1, 180,   1,   120,   4,          0,     46.364,  99218.184,    41.032,    -7.768,    23.979,   337.747, 2, 5.486E-04, -1.00,   2,  3.792E-03,  6.929E-05,  2.886E-13,  1.604E-14,  4.749E+02,  2.640E+01, 255
2019-305T01:10:23.722,   1, 180,   1,   120,   4,          0,     46.364,  99218.184,    41.020,    -7.765,    23.979,   336.537, 2, 5.486E-04, -1.00,   2,  5.123E-03,  7.497E-05,  2.420E-13,  1.597E-14,  2.948E+02,  1.946E+01, 255
2019-305T01:12:23.723,   1, 180,   1,   120,   4,          0,     46.364,  99218.184,    41.008,    -7.761,    23.979,   335.327, 2, 5.486E-04, -1.00,   2,  6.674E-03,  7.360E-05,  5.762E-13,  1.647E-14,  5.388E+02,  1.540E+01, 255
2019-305T01:14:23.724,   1, 180,   1,   120,   4,          0,     46.364,  99218.184,    40.995,    -7.758,    23.979,   334.117, 2, 5.486E-04, -1.00,   2,  8.069E-03,  7.864E-05,  7.056E-13,  1.672E-14,  5.458E+02,  1.293E+01, 255
2019-305T01:16:23.726,   1, 180,   1,   120,   4,          0,     46.364,  99218.184,    40.983,    -7.755,    23.979,   332.907, 2, 5.486E-04, -1.00,   2,  1.644E-02,  9.639E-05,  1.793E-12,  1.879E-14,  6.808E+02,  7.135E+00, 255
2019-305T01:18:23.727,   1, 180,   1,   120,   4,          0,     46.364,  99218.184,    40.971,    -7.751,    23.979,   331.697, 2, 5.486E-04, -1.00,   2,  1.899E-02,  1.026E-04,  2.016E-12,  1.839E-14,  6.626E+02,  6.045E+00, 255
2019-305T01:20:23.729,   1, 180,   1,   120,   4,          0,     46.364,  99218.184,    40.959,    -7.748,    23.978,   330.487, 2, 5.486E-04, -1.00,   2,  1.188E-02,  8.925E-05,  1.188E-12,  1.809E-14,  6.242E+02,  9.499E+00, 255
2019-305T01:22:23.730,   1, 180,   1,   120,   4,          0,     46.364,  99218.184,    40.946,    -7.745,    23.978,   329.277, 2, 5.486E-04, -1.00,   2,  1.260E-02,  9.080E-05,  1.353E-12,  1.846E-14,  6.702E+02,  9.144E+00, 255
2019-305T01:24:23.731,   1, 180,   1,   120,   4,          0,     46.364,  99218.184,    40.934,    -7.742,    23.978,   328.067, 2, 5.486E-04, -1.00,   2,  1.597E-02,  9.391E-05,  1.724E-12,  1.858E-14,  6.740E+02,  7.264E+00, 255
2019-305T01:26:23.733,   1, 180,   1,   120,   4,          0,     46.364,  99218.184,    40.922,    -7.738,    23.978,   326.857, 2, 5.486E-04, -1.00,   2,  1.937E-02,  1.015E-04,  2.040E-12,  1.852E-14,  6.573E+02,  5.966E+00, 255
2019-305T01:28:23.734,   1, 180,   1,   120,   4,          0,     46.364,  99218.184,    40.910,    -7.735,    23.978,   325.646, 2, 5.486E-04, -1.00,   2,  1.181E-02,  8.574E-05,  1.264E-12,  1.792E-14,  6.682E+02,  9.473E+00, 255
2019-305T01:30:23.736,   1, 180,   1,   120,   4,          0,     46.364,  99218.184,    40.897,    -7.732,    23.978,   324.436, 2, 5.486E-04, -1.00,   2,  1.579E-02,  9.572E-05,  1.684E-12,  1.771E-14,  6.654E+02,  7.000E+00, 255
2019-305T01:32:23.737,   1, 180,   1,   120,   4,          0,     46.364,  99218.184,    40.885,    -7.728,    23.978,   323.226, 2, 5.486E-04, -1.00,   2,  1.716E-02,  1.020E-04,  1.930E-12,  2.021E-14,  7.020E+02,  7.350E+00, 255
2019-305T01:34:23.738,   1, 180,   1,   120,   4,          0,     46.364,  99218.184,    40.873,    -7.725,    23.978,   322.016, 2, 5.486E-04, -1.00,   2,  1.766E-02,  1.047E-04,  1.973E-12,  2.162E-14,  6.976E+02,  7.642E+00, 255
2019-305T01:36:23.740,   1, 180,   1,   120,   4,          0,     46.364,  99218.184,    40.861,    -7.722,    23.978,   320.806, 2, 5.486E-04, -1.00,   2,  1.200E-02,  8.830E-05,  1.604E-12,  1.977E-14,  8.342E+02,  1.028E+01, 255
2019-305T01:38:23.741,   1, 180,   1,   120,   4,          0,     46.364,  99218.184,    40.848,    -7.718,    23.978,   319.596, 2, 5.486E-04, -1.00,   2,  9.297E-03,  8.097E-05,  1.619E-12,  1.956E-14,  1.087E+03,  1.313E+01, 255
2019-305T01:40:23.742,   1, 180,   1,   120,   4,          0,     46.364,  99218.184,    40.836,    -7.715,    23.978,   318.386, 2, 5.486E-04, -1.00,   2,  1.100E-02,  8.392E-05,  1.676E-12,  1.917E-14,  9.511E+02,  1.088E+01, 255
2019-305T01:42:23.744,   1, 180,   1,   120,   4,          0,     46.364,  99218.184,    40.824,    -7.712,    23.978,   317.176, 2, 5.486E-04, -1.00,   2,  1.311E-02,  8.988E-05,  1.711E-12,  1.839E-14,  8.149E+02,  8.757E+00, 255
2019-305T01:44:23.745,   1, 180,   1,   120,   4,          0,     46.364,  99218.184,    40.812,    -7.708,    23.978,   315.966, 2, 5.486E-04, -1.00,   2,  1.130E-02,  8.467E-05,  1.580E-12,  1.876E-14,  8.725E+02,  1.037E+01, 255
2019-305T01:46:23.747,   1, 180,   1,   120,   4,          0,     46.364,  99218.184,    40.799,    -7.705,    23.978,   314.756, 2, 5.486E-04, -1.00,   2,  1.240E-02,  8.763E-05,  1.499E-12,  1.815E-14,  7.545E+02,  9.136E+00, 255
2019-305T01:48:23.748,   1, 180,   1,   120,   4,          0,     46.364,  99218.184,    40.787,    -7.701,    23.978,   313.546, 2, 5.486E-04, -1.00,   2,  8.564E-03,  7.652E-05,  1.474E-12,  1.892E-14,  1.074E+03,  1.379E+01, 255
2019-305T01:50:23.749,   1, 180,   1,   120,   4,          0,     46.364,  99218.184,    40.775,    -7.698,    23.978,   312.336, 2, 5.486E-04, -1.00,   2,  7.688E-03,  7.399E-05,  1.614E-12,  1.916E-14,  1.310E+03,  1.555E+01, 255
2019-305T01:52:23.751,   1, 180,   1,   120,   4,          0,     46.364,  99218.184,    40.763,    -7.695,    23.977,   311.126, 2, 5.486E-04, -1.00,   2,  8.166E-03,  7.587E-05,  1.799E-12,  2.022E-14,  1.375E+03,  1.546E+01, 255
2019-305T01:54:23.752,   1, 180,   1,   120,   4,          0,     46.364,  99218.184,    40.750,    -7.691,    23.977,   309.916, 2, 5.486E-04, -1.00,   2,  8.181E-03,  7.607E-05,  1.882E-12,  1.962E-14,  1.436E+03,  1.497E+01, 255
2019-305T01:56:23.754,   1, 180,   1,   120,   4,          0,     46.364,  99218.184,    40.738,    -7.688,    23.977,   308.706, 2, 5.486E-04, -1.00,   2,  9.491E-03,  8.042E-05,  2.069E-12,  2.047E-14,  1.360E+03,  1.346E+01, 255
2019-305T01:58:23.755,   1, 180,   1,   120,   4,          0,     46.364,  99218.184,    40.726,    -7.685,    23.977,   307.496, 2, 5.486E-04, -1.00,   2,  9.984E-03,  7.907E-05,  2.569E-12,  2.144E-14,  1.606E+03,  1.340E+01, 255
2019-305T02:00:23.756,   1, 180,   1,   120,   4,          0,     46.364,  99218.184,    40.713,    -7.681,    23.977,   306.286, 2, 5.486E-04, -1.00,   2,  1.003E-02,  7.964E-05,  2.475E-12,  2.087E-14,  1.540E+03,  1.299E+01, 255
2019-305T02:02:23.758,   1, 180,   1,   120,   4,          0,     46.364,  99218.184,    40.701,    -7.678,    23.977,   305.076, 2, 5.486E-04, -1.00,   2,  1.021E-02,  8.029E-05,  2.428E-12,  2.074E-14,  1.484E+03,  1.268E+01, 255
2019-305T02:04:23.759,   1, 180,   1,   120,   4,          0,     46.364,  99218.184,    40.689,    -7.675,    23.977,   303.865, 2, 5.486E-04, -1.00,   2,  1.063E-02,  8.290E-05,  2.352E-12,  2.078E-14,  1.381E+03,  1.220E+01, 255
2019-305T02:06:23.760,   1, 180,   1,   120,   4,          0,     46.364,  99218.184,    40.677,    -7.671,    23.977,   302.655, 2, 5.486E-04, -1.00,   2,  1.532E-02,  9.835E-05,  2.913E-12,  2.165E-14,  1.187E+03,  8.823E+00, 255
2019-305T02:08:23.762,   1, 180,   1,   120,   4,          0,     46.364,  99218.184,    40.664,    -7.668,    23.977,   301.445, 2, 5.486E-04, -1.00,   2,  1.907E-02,  1.050E-04,  3.500E-12,  2.147E-14,  1.146E+03,  7.027E+00, 255
2019-305T02:10:23.763,   1, 180,   1,   120,   4,          0,     46.364,  99218.184,    40.652,    -7.664,    23.977,   300.235, 2, 5.486E-04, -1.00,   2,  1.577E-02,  9.846E-05,  3.202E-12,  2.199E-14,  1.267E+03,  8.701E+00, 255
2019-305T02:12:23.765,   1, 180,   1,   120,   4,          0,     46.364,  99218.184,    40.640,    -7.661,    23.977,   299.025, 2, 5.486E-04, -1.00,   2,  1.800E-02,  1.034E-04,  3.367E-12,  2.165E-14,  1.168E+03,  7.508E+00, 255
2019-305T02:14:23.766,   1, 180,   1,   120,   4,          0,     46.364,  99218.184,    40.627,    -7.658,    23.976,   297.815, 2, 5.486E-04, -1.00,   2,  1.888E-02,  1.026E-04,  3.461E-12,  2.222E-14,  1.144E+03,  7.345E+00, 255
2019-305T02:16:23.767,   1, 180,   1,   120,   4,          0,     46.364,  99218.184,    40.615,    -7.654,    23.976,   296.605, 2, 5.486E-04, -1.00,   2,  1.756E-02,  1.033E-04,  3.017E-12,  2.264E-14,  1.072E+03,  8.044E+00, 255
2019-305T02:18:23.769,   1, 180,   1,   120,   4,          0,     46.364,  99218.184,    40.603,    -7.651,    23.976,   295.395, 2, 5.486E-04, -1.00,   2,  1.667E-02,  9.931E-05,  2.819E-12,  2.160E-14,  1.055E+03,  8.086E+00, 255
2019-305T02:20:23.770,   1, 180,   1,   120,   4,          0,     46.364,  99218.184,    40.590,    -7.648,    23.976,   294.185, 2, 5.486E-04, -1.00,   2,  1.706E-02,  1.016E-04,  3.173E-12,  2.174E-14,  1.161E+03,  7.955E+00, 255
2019-305T02:22:23.771,   1, 180,   1,   120,   4,          0,     46.364,  99218.184,    40.578,    -7.644,    23.976,   292.975, 2, 5.486E-04, -1.00,   2,  1.590E-02,  1.020E-04,  4.150E-12,  2.424E-14,  1.629E+03,  9.517E+00, 255
2019-305T02:24:23.773,   1, 180,   1,   120,   4,          0,     46.364,  99218.184,    40.566,    -7.641,    23.976,   291.765, 2, 5.486E-04, -1.00,   2,  1.578E-02,  1.020E-04,  4.251E-12,  2.546E-14,  1.681E+03,  1.007E+01, 255
2019-305T02:26:23.774,   1, 180,   1,   120,   4,          0,     46.364,  99218.184,    40.553,    -7.637,    23.976,   290.555, 2, 5.486E-04, -1.00,   2,  1.498E-02,  1.036E-04,  4.179E-12,  2.591E-14,  1.741E+03,  1.079E+01, 255
2019-305T02:28:23.776,   1, 180,   1,   120,   4,          0,     46.364,  99218.184,    40.541,    -7.634,    23.976,   289.345, 2, 5.486E-04, -1.00,   2,  1.459E-02,  1.039E-04,  4.566E-12,  2.727E-14,  1.954E+03,  1.167E+01, 255
2019-305T02:30:23.777,   1, 180,   1,   120,   4,          0,     46.364,  99218.184,    40.529,    -7.631,    23.976,   288.135, 2, 5.486E-04, -1.00,   2,  1.384E-02,  1.056E-04,  4.316E-12,  2.775E-14,  1.947E+03,  1.252E+01, 255
2019-305T02:32:23.778,   1, 180,   1,   120,   4,          0,     46.364,  99218.184,    40.516,    -7.627,    23.976,   286.925, 2, 5.486E-04, -1.00,   2,  1.460E-02,  1.072E-04,  3.856E-12,  2.693E-14,  1.648E+03,  1.151E+01, 255
2019-305T02:34:23.780,   1, 180,   1,   120,   4,          0,     46.364,  99218.184,    40.504,    -7.624,    23.976,   285.715, 2, 5.486E-04, -1.00,   2,  1.587E-02,  1.039E-04,  3.125E-12,  2.380E-14,  1.229E+03,  9.361E+00, 255
2019-305T02:36:23.781,   1, 180,   1,   120,   4,          0,     46.364,  99218.184,    40.492,    -7.620,    23.976,   284.504, 2, 5.486E-04, -1.00,   2,  1.574E-02,  1.063E-04,  3.128E-12,  2.408E-14,  1.240E+03,  9.548E+00, 255
2019-305T02:38:23.783,   1, 180,   1,   120,   4,          0,     46.364,  99218.184,    40.479,    -7.617,    23.976,   283.294, 2, 5.486E-04, -1.00,   2,  1.498E-02,  1.060E-04,  3.715E-12,  2.643E-14,  1.548E+03,  1.101E+01, 255
2019-305T02:40:23.784,   1, 180,   1,   120,   4,          0,     46.364,  99218.184,    40.467,    -7.614,    23.976,   282.084, 2, 5.486E-04, -1.00,   2,  1.344E-02,  1.059E-04,  3.765E-12,  2.706E-14,  1.748E+03,  1.256E+01, 255
2019-305T02:42:23.785,   1, 180,   1,   120,   4,          0,     46.364,  99218.184,    40.455,    -7.610,    23.976,   280.874, 2, 5.486E-04, -1.00,   2,  1.251E-02,  1.065E-04,  3.520E-12,  2.803E-14,  1.756E+03,  1.398E+01, 255
2019-305T02:44:23.787,   1, 180,   1,   120,   4,          0,     46.364,  99218.184,    40.442,    -7.607,    23.976,   279.664, 2, 5.486E-04, -1.00,   2,  1.222E-02,  1.066E-04,  3.590E-12,  2.860E-14,  1.834E+03,  1.461E+01, 255
2019-305T02:46:23.788,   1, 180,   1,   120,   4,          0,     46.364,  99218.184,    40.430,    -7.603,    23.975,   278.454, 2, 5.486E-04, -1.00,   2,  1.037E-02,  1.111E-04,  2.647E-12,  3.088E-14,  1.593E+03,  1.859E+01, 255
2019-305T02:48:23.790,   1, 180,   1,   120,   4,          0,     46.364,  99218.184,    40.418,    -7.600,    23.975,   277.244, 2, 5.486E-04, -1.00,   2,  1.493E-02,  1.156E-04,  5.404E-12,  3.225E-14,  2.260E+03,  1.349E+01, 255
2019-305T02:50:23.791,   1, 180,   1,   120,   4,          0,     46.364,  99218.184,    40.405,    -7.597,    23.975,   276.034, 2, 5.486E-04, -1.00,   2,  1.526E-02,  1.160E-04,  5.607E-12,  3.243E-14,  2.292E+03,  1.326E+01, 255
2019-305T02:52:23.792,   1, 180,   1,   120,   4,          0,     46.364,  99218.184,    40.393,    -7.593,    23.975,   274.824, 2, 5.486E-04, -1.00,   2,  1.537E-02,  1.164E-04,  6.230E-12,  3.301E-14,  2.531E+03,  1.341E+01, 255
2019-305T02:54:23.794,   1, 180,   1,   120,   4,          0,     46.364,  99218.184,    40.381,    -7.590,    23.975,   273.614, 2, 5.486E-04, -1.00,   2,  1.549E-02,  1.150E-04,  6.720E-12,  3.326E-14,  2.708E+03,  1.340E+01, 255
2019-305T02:56:23.795,   1, 180,   1,   120,   4,          0,     46.364,  99218.184,    40.368,    -7.586,    23.975,   272.404, 2, 5.486E-04, -1.00,   2,  1.462E-02,  1.140E-04,  5.962E-12,  3.232E-14,  2.545E+03,  1.379E+01, 255
2019-305T02:58:23.796,   1, 180,   1,   120,   4,          0,     46.364,  99218.184,    40.356,    -7.583,    23.975,   271.194, 2, 5.486E-04, -1.00,   2,  1.407E-02,  1.148E-04,  5.052E-12,  3.161E-14,  2.241E+03,  1.402E+01, 255
2019-305T03:00:23.798,   1, 180,   1,   120,   4,          0,     46.364,  99218.184,    40.344,    -7.580,    23.975,   269.984, 2, 5.486E-04, -1.00,   2,  1.435E-02,  1.134E-04,  5.083E-12,  3.094E-14,  2.211E+03,  1.346E+01, 255
2019-305T03:02:23.799,   1, 180,   1,   120,   4,          0,     46.364,  99218.184,    40.331,    -7.576,    23.975,   268.773, 2, 5.486E-04, -1.00,   2,  1.501E-02,  1.148E-04,  5.908E-12,  3.194E-14,  2.458E+03,  1.329E+01, 255
2019-305T03:04:23.801,   1, 180,   1,   120,   4,          0,     46.364,  99218.184,    40.319,    -7.573,    23.975,   267.563, 2, 5.486E-04, -1.00,   2,  1.712E-02,  1.151E-04,  8.088E-12,  3.412E-14,  2.949E+03,  1.244E+01, 255
2019-305T03:06:23.802,   1, 180,   1,   120,   4,          0,     46.364,  99218.184,    40.306,    -7.569,    23.975,   266.353, 2, 5.486E-04, -1.00,   2,  1.675E-02,  1.134E-04,  7.918E-12,  3.428E-14,  2.950E+03,  1.277E+01, 255
2019-305T03:08:23.803,   1, 180,   1,   120,   4,          0,     46.364,  99218.184,    40.294,    -7.566,    23.974,   265.143, 2, 5.486E-04, -1.00,   2,  1.753E-02,  1.149E-04,  8.351E-12,  3.404E-14,  2.973E+03,  1.212E+01, 255
2019-305T03:10:23.805,   1, 180,   1,   120,   4,          0,     46.364,  99218.184,    40.282,    -7.562,    23.974,   263.933, 2, 5.486E-04, -1.00,   2,  1.702E-02,  1.140E-04,  7.970E-12,  3.374E-14,  2.922E+03,  1.237E+01, 255
2019-305T03:12:23.806,   1, 180,   1,   120,   4,          0,     46.364,  99218.184,    40.269,    -7.559,    23.974,   262.723, 2, 5.486E-04, -1.00,   2,  1.722E-02,  1.132E-04,  8.535E-12,  3.447E-14,  3.094E+03,  1.250E+01, 255
2019-305T03:14:23.808,   1, 180,   1,   120,   4,          0,     46.364,  99218.184,    40.257,    -7.556,    23.974,   261.513, 2, 5.486E-04, -1.00,   2,  1.812E-02,  1.149E-04,  9.358E-12,  3.526E-14,  3.224E+03,  1.215E+01, 255
2019-305T03:16:23.809,   1, 180,   1,   120,   4,          0,     46.364,  99218.184,    40.244,    -7.552,    23.974,   260.303, 2, 5.486E-04, -1.00,   2,  1.881E-02,  1.150E-04,  9.740E-12,  3.585E-14,  3.232E+03,  1.190E+01, 255
2019-305T03:18:23.810,   1, 180,   1,   120,   4,          0,     46.364,  99218.184,    40.232,    -7.549,    23.974,   259.093, 2, 5.486E-04, -1.00,   2,  1.664E-02,  1.114E-04,  7.927E-12,  3.349E-14,  2.974E+03,  1.256E+01, 255
2019-305T03:20:23.812,   1, 180,   1,   120,   4,          0,     46.364,  99218.184,    40.220,    -7.545,    23.974,   257.883, 2, 5.486E-04, -1.00,   2,  1.661E-02,  1.100E-04,  8.291E-12,  3.374E-14,  3.115E+03,  1.268E+01, 255
2019-305T03:22:23.813,   1, 180,   1,   120,   4,          0,     46.364,  99218.184,    40.207,    -7.542,    23.974,   256.673, 2, 5.486E-04, -1.00,   2,  1.652E-02,  1.095E-04,  8.635E-12,  3.510E-14,  3.263E+03,  1.326E+01, 255
2019-305T03:24:23.814,   1, 180,   1,   120,   4,          0,     46.364,  99218.184,    40.195,    -7.538,    23.974,   255.463, 2, 5.486E-04, -1.00,   2,  1.881E-02,  1.131E-04,  9.636E-12,  3.577E-14,  3.196E+03,  1.187E+01, 255
2019-305T03:26:23.816,   1, 180,   1,   120,   4,          0,     46.364,  99218.184,    40.182,    -7.535,    23.974,   254.253, 2, 5.486E-04, -1.00,   2,  1.912E-02,  1.126E-04,  9.635E-12,  3.503E-14,  3.145E+03,  1.143E+01, 255
2019-305T03:28:23.817,   1, 180,   1,   120,   4,          0,     46.364,  99218.184,    40.170,    -7.531,    23.974,   253.042, 2, 5.486E-04, -1.00,   2,  1.904E-02,  1.122E-04,  9.505E-12,  3.501E-14,  3.115E+03,  1.148E+01, 255
2019-305T03:30:23.819,   1, 180,   1,   120,   4,          0,     46.364,  99218.184,    40.158,    -7.528,    23.974,   251.832, 2, 5.486E-04, -1.00,   2,  1.963E-02,  1.132E-04,  9.235E-12,  3.474E-14,  2.937E+03,  1.105E+01, 255
2019-305T03:32:23.820,   1, 180,   1,   120,   4,          0,     46.364,  99218.184,    40.145,    -7.524,    23.974,   250.622, 2, 5.486E-04, -1.00,   2,  1.959E-02,  1.139E-04,  9.224E-12,  3.399E-14,  2.939E+03,  1.083E+01, 255
2019-305T03:34:23.821,   1, 180,   1,   120,   4,          0,     46.364,  99218.184,    40.133,    -7.521,    23.974,   249.412, 2, 5.486E-04, -1.00,   2,  2.005E-02,  1.128E-04,  9.716E-12,  3.453E-14,  3.024E+03,  1.075E+01, 255
2019-305T03:36:23.823,   1, 180,   1,   120,   4,          0,     46.364,  99218.184,    40.120,    -7.518,    23.974,   248.202, 2, 5.486E-04, -1.00,   2,  1.955E-02,  1.164E-04,  9.114E-12,  3.416E-14,  2.910E+03,  1.091E+01, 255
2019-305T03:38:23.824,   1, 180,   1,   120,   4,          0,     46.364,  99218.184,    40.108,    -7.514,    23.973,   246.992, 2, 5.486E-04, -1.00,   2,  1.861E-02,  1.145E-04,  8.797E-12,  3.463E-14,  2.950E+03,  1.161E+01, 255
2019-305T03:40:23.826,   1, 180,   1,   120,   4,          0,     46.364,  99218.184,    40.095,    -7.511,    23.973,   245.782, 2, 5.486E-04, -1.00,   2,  1.936E-02,  1.172E-04,  8.909E-12,  3.410E-14,  2.872E+03,  1.100E+01, 255
2019-305T03:42:23.827,   1, 180,   1,   120,   4,          0,     46.364,  99218.184,    40.083,    -7.507,    23.973,   244.572, 2, 5.486E-04, -1.00,   2,  2.046E-02,  1.179E-04,  9.223E-12,  3.401E-14,  2.814E+03,  1.038E+01, 255
2019-305T03:44:23.828,   1, 180,   1,   120,   4,          0,     46.364,  99218.184,    40.071,    -7.504,    23.973,   243.362, 2, 5.486E-04, -1.00,   2,  1.933E-02,  1.164E-04,  8.594E-12,  3.351E-14,  2.776E+03,  1.082E+01, 255
2019-305T03:46:23.830,   1, 180,   1,   120,   4,          0,     46.364,  99218.184,    40.058,    -7.500,    23.973,   242.152, 2, 5.486E-04, -1.00,   2,  1.879E-02,  1.141E-04,  8.342E-12,  3.368E-14,  2.771E+03,  1.119E+01, 255
2019-305T03:48:23.831,   1, 180,   1,   120,   4,          0,     46.364,  99218.184,    40.046,    -7.497,    23.973,   240.942, 2, 5.486E-04, -1.00,   2,  1.935E-02,  1.159E-04,  8.520E-12,  3.373E-14,  2.748E+03,  1.088E+01, 255
2019-305T03:50:23.833,   1, 180,   1,   120,   4,          0,     46.364,  99218.184,    40.033,    -7.493,    23.973,   239.731, 2, 5.486E-04, -1.00,   2,  1.886E-02,  1.178E-04,  7.922E-12,  3.364E-14,  2.622E+03,  1.113E+01, 255
2019-305T03:52:23.834,   1, 180,   1,   120,   4,          0,     46.364,  99218.184,    40.021,    -7.490,    23.973,   238.521, 2, 5.486E-04, -1.00,   2,  1.948E-02,  1.186E-04,  7.715E-12,  3.341E-14,  2.472E+03,  1.071E+01, 255
2019-305T03:54:23.835,   1, 180,   1,   120,   4,          0,     46.364,  99218.184,    40.008,    -7.486,    23.973,   237.311, 2, 5.486E-04, -1.00,   2,  2.058E-02,  1.220E-04,  7.827E-12,  3.314E-14,  2.374E+03,  1.005E+01, 255
2019-305T03:56:23.837,   1, 180,   1,   120,   4,          0,     46.364,  99218.184,    39.996,    -7.483,    23.973,   236.101, 2, 5.486E-04, -1.00,   2,  2.120E-02,  1.219E-04,  8.376E-12,  3.443E-14,  2.466E+03,  1.014E+01, 255
2019-305T03:58:23.838,   1, 180,   1,   120,   4,          0,     46.364,  99218.184,    39.983,    -7.479,    23.973,   234.891, 2, 5.486E-04, -1.00,   2,  2.069E-02,  1.210E-04,  8.511E-12,  3.423E-14,  2.567E+03,  1.032E+01, 255
2019-305T04:00:23.839,   1, 180,   1,   120,   4,          0,     46.364,  99218.184,    39.971,    -7.476,    23.972,   233.681, 2, 5.486E-04, -1.00,   2,  1.860E-02,  1.184E-04,  7.610E-12,  3.365E-14,  2.554E+03,  1.129E+01, 255